Klawock, AK

5:53 PM AKDT on April 28, 2017 (GMT -0800)
Klawock

Weather History for PAKW - April, 2013

Change the Weather History Date:

Thursday, April 25, 2013

  Actual Average Record
Temperature  
Mean Temperature 44 °F -  
Max Temperature 46 °F 51 °F 62 °F (2015)
Min Temperature 42 °F 34 °F 28 °F (2008)
Degree Days  
Heating Degree Days 21    
Moisture  
Dew Point 43 °F    
Average Humidity 93    
Maximum Humidity 100    
Minimum Humidity 87    
Precipitation  
Precipitation 1.25 in - - ()
Sea Level Pressure  
Sea Level Pressure 29.75 in    
Wind  
Wind Speed 7 mph (SSW)    
Max Wind Speed 12 mph    
Max Gust Speed 24 mph    
Visibility 4 miles    
Events Rain    
Averages and records for this station are not official NWS values.
T = Trace of Precipitation, MM = Missing Value Source: NWS Daily Summary

Daily Weather History Graph

Daily Weather History Graph

Search for Another Location

Airport or City:

Trip Planner

Search our weather history database for the weather conditions in past years. The results will help you decide how hot, cold, wet, or windy it might be!

Date:

Astronomy

Apr. 25, 2013 Rise Set
Actual Time 5:22 AM AKDT 8:19 PM AKDT
Civil Twilight 4:40 AM AKDT 9:01 PM AKDT
Nautical Twilight 3:44 AM AKDT 9:57 PM AKDT
Astronomical Twilight 2:29 AM AKDT 11:15 PM AKDT
Moon 8:48 PM AKDT (4/25) 5:10 AM AKDT (4/25)
Length of Visible Light 16h 20m
Length of Day
14h 56m
Full, 100% of the Moon is Illuminated
Apr 25
Full
May 2
Last Quarter
May 9
New
May 17
First Quarter
May 24
Full

Hourly Weather History & Observations

Time (AKDT) Temp. Windchill Dew Point Humidity Pressure Visibility Wind Dir Wind Speed Gust Speed Precip Events Conditions
12:53 AM 45.0 °F 41.2 °F 43.0 °F 93% 29.93 in 9.0 mi SSW 6.9 mph - N/A   Overcast
1:30 AM 44.6 °F 40.7 °F 42.8 °F 93% 29.91 in 10.0 mi South 6.9 mph - N/A   Overcast
1:53 AM 45.0 °F 41.8 °F 43.0 °F 93% 29.91 in 10.0 mi South 5.8 mph - N/A   Overcast
2:16 AM 44.6 °F 42.2 °F 42.8 °F 93% 29.88 in 10.0 mi Variable 4.6 mph - 0.00 in Rain Light Rain
2:53 AM 45.0 °F 42.6 °F 43.0 °F 93% 29.87 in 5.0 mi Variable 4.6 mph - 0.04 in Rain Light Rain
3:00 AM 44.6 °F 42.2 °F 42.8 °F 93% 29.85 in 3.0 mi Variable 4.6 mph - 0.01 in Rain Light Rain
3:53 AM 45.0 °F 42.6 °F 43.0 °F 93% 29.84 in 3.0 mi SSW 4.6 mph - 0.06 in Rain Light Rain
4:49 AM 44.6 °F 41.4 °F 42.8 °F 93% 29.81 in 7.0 mi South 5.8 mph - 0.06 in Rain Light Rain
4:53 AM 45.0 °F 42.6 °F 43.0 °F 93% 29.81 in 5.0 mi Variable 4.6 mph - 0.07 in Rain Light Rain
5:53 AM 45.0 °F 41.2 °F 43.0 °F 93% 29.78 in 4.0 mi SSE 6.9 mph - 0.02 in Rain Light Rain
6:18 AM 44.6 °F 40.7 °F 42.8 °F 93% 29.78 in 2.5 mi SSW 6.9 mph - 0.01 in Rain Light Rain
6:25 AM 44.6 °F 42.2 °F 42.8 °F 93% 29.78 in 4.0 mi Variable 4.6 mph - 0.01 in Rain Light Rain
6:40 AM 44.6 °F 40.2 °F 42.8 °F 93% 29.77 in 2.0 mi SSE 8.1 mph - 0.02 in Rain Light Rain
6:49 AM 44.6 °F 41.4 °F 42.8 °F 93% 29.77 in 1.5 mi South 5.8 mph - 0.04 in Rain Rain
6:53 AM 45.0 °F 41.2 °F 43.0 °F 93% 29.77 in 1.5 mi Variable 6.9 mph - 0.05 in Rain Rain
6:58 AM 44.6 °F 41.4 °F 42.8 °F 93% 29.77 in 2.0 mi SSW 5.8 mph - 0.00 in Rain Light Rain
7:17 AM 44.6 °F 40.2 °F 44.6 °F 100% 29.77 in 1.8 mi SSW 8.1 mph - 0.02 in Rain Light Rain
7:49 AM 44.6 °F 41.4 °F 44.6 °F 100% 29.76 in 2.5 mi SSW 5.8 mph - 0.03 in Rain Light Rain
7:53 AM 45.0 °F 40.1 °F 44.1 °F 97% 29.76 in 3.0 mi SSW 9.2 mph - 0.03 in Rain Light Rain
8:25 AM 44.6 °F 40.2 °F 44.6 °F 100% 29.76 in 1.8 mi SSW 8.1 mph - 0.01 in Rain Light Rain
8:53 AM 45.0 °F 41.8 °F 44.1 °F 97% 29.75 in 4.0 mi SSW 5.8 mph - 0.03 in Rain Light Rain
9:23 AM 46.4 °F 41.9 °F 44.6 °F 93% 29.75 in 2.0 mi SSW 9.2 mph 19.6 mph 0.01 in Rain Light Rain
9:35 AM 46.4 °F 42.4 °F 44.6 °F 93% 29.75 in 2.0 mi SSW 8.1 mph - 0.03 in Rain Light Rain
9:53 AM 46.0 °F 41.0 °F 44.1 °F 93% 29.76 in 2.0 mi SSW 10.4 mph 16.1 mph 0.05 in Rain Light Rain
10:09 AM 46.4 °F 41.5 °F 44.6 °F 93% 29.76 in 3.0 mi South 10.4 mph 23.0 mph 0.01 in Rain Light Rain
10:18 AM 46.4 °F 41.9 °F 44.6 °F 93% 29.76 in 2.5 mi SSW 9.2 mph 23.0 mph 0.01 in Rain Light Rain
10:28 AM 46.4 °F 41.9 °F 44.6 °F 93% 29.76 in 1.8 mi SSW 9.2 mph 19.6 mph 0.02 in Rain Light Rain
10:36 AM 46.4 °F 41.1 °F 44.6 °F 93% 29.76 in 2.0 mi SSW 11.5 mph 19.6 mph 0.02 in Rain Light Rain
10:42 AM 46.4 °F 41.1 °F 44.6 °F 93% 29.75 in 1.8 mi SSW 11.5 mph 18.4 mph 0.03 in Rain Light Rain
11:00 AM 46.4 °F 41.9 °F 44.6 °F 93% 29.75 in 2.0 mi SSW 9.2 mph 20.7 mph 0.00 in Rain Light Rain
11:23 AM 46.4 °F 41.1 °F 44.6 °F 93% 29.75 in 3.0 mi SSW 11.5 mph 20.7 mph 0.01 in Rain Light Rain
11:33 AM 46.4 °F 41.9 °F 44.6 °F 93% 29.75 in 2.5 mi SSW 9.2 mph - 0.01 in Rain Light Rain
11:36 AM 46.4 °F 42.9 °F 44.6 °F 93% 29.75 in 3.0 mi SSW 6.9 mph - 0.02 in Rain Light Rain
11:53 AM 46.0 °F 41.9 °F 45.0 °F 96% 29.76 in 3.0 mi SSW 8.1 mph - 0.03 in Rain Light Rain
12:06 PM 46.4 °F 41.5 °F 44.6 °F 93% 29.75 in 3.0 mi SSW 10.4 mph 19.6 mph 0.03 in Rain Light Rain
12:13 PM 46.4 °F 41.1 °F 44.6 °F 93% 29.75 in 5.0 mi SSW 11.5 mph 19.6 mph 0.04 in Rain Light Rain
12:27 PM 46.4 °F 41.5 °F 44.6 °F 93% 29.74 in 9.0 mi SSW 10.4 mph 18.4 mph 0.05 in Rain Light Rain
12:53 PM 46.0 °F 41.4 °F 44.1 °F 93% 29.74 in 10.0 mi SSW 9.2 mph 17.3 mph 0.06 in Rain Light Rain
1:12 PM 46.4 °F 42.9 °F 44.6 °F 93% 29.73 in 2.5 mi SSW 6.9 mph - 0.01 in Rain Light Rain
1:21 PM 46.4 °F 42.9 °F 44.6 °F 93% 29.73 in 6.0 mi SSW 6.9 mph - 0.02 in Rain Light Rain
1:36 PM 46.4 °F 42.9 °F 44.6 °F 93% 29.73 in 7.0 mi SSW 6.9 mph - 0.03 in Rain Light Rain
1:53 PM 46.0 °F 41.4 °F 44.1 °F 93% 29.73 in 10.0 mi SSW 9.2 mph 17.3 mph 0.03 in Rain Light Rain
2:53 PM 46.0 °F 41.9 °F 44.1 °F 93% 29.72 in 6.0 mi SSW 8.1 mph 16.1 mph 0.08 in Rain Light Rain
3:36 PM 46.4 °F 42.4 °F 44.6 °F 93% 29.70 in 4.0 mi SSW 8.1 mph - 0.06 in Rain Rain
3:53 PM 46.0 °F 43.1 °F 44.1 °F 93% 29.70 in 4.0 mi SSW 5.8 mph - 0.08 in Rain Rain
4:53 PM 46.0 °F 42.5 °F 44.1 °F 93% 29.68 in 6.0 mi Variable 6.9 mph - 0.09 in Rain Light Rain
5:53 PM 46.0 °F 41.0 °F 43.0 °F 89% 29.69 in 4.0 mi South 10.4 mph 17.3 mph 0.11 in Rain Rain
6:18 PM 44.6 °F 40.2 °F 42.8 °F 93% 29.68 in 2.5 mi SSW 8.1 mph 18.4 mph 0.06 in Rain Rain
6:30 PM 44.6 °F 40.7 °F 42.8 °F 93% 29.67 in 3.0 mi SSW 6.9 mph - 0.09 in Rain Rain
6:53 PM 45.0 °F 41.8 °F 43.0 °F 93% 29.67 in 4.0 mi SSW 5.8 mph - 0.14 in Rain Rain
7:22 PM 44.6 °F 39.2 °F 42.8 °F 93% 29.65 in 6.0 mi SSW 10.4 mph 16.1 mph 0.03 in Rain Light Rain
7:53 PM 44.1 °F 39.5 °F 41.0 °F 89% 29.66 in 6.0 mi SSW 8.1 mph 24.2 mph 0.07 in Rain Light Rain
8:13 PM 42.8 °F 38.0 °F 39.2 °F 87% 29.65 in 6.0 mi South 8.1 mph - 0.02 in Rain Light Rain
8:53 PM 43.0 °F 39.5 °F 39.9 °F 89% 29.65 in 5.0 mi South 5.8 mph - 0.09 in Rain Rain
9:53 PM 43.0 °F 38.8 °F 39.9 °F 89% 29.63 in 10.0 mi Variable 6.9 mph - 0.06 in Rain Light Rain
11:21 PM 42.8 °F 38.0 °F 41.0 °F 93% 29.57 in 7.0 mi South 8.1 mph - 0.03 in Rain Light Rain
11:53 PM 44.1 °F 40.1 °F 41.0 °F 89% 29.56 in 5.0 mi Variable 6.9 mph - 0.06 in Rain Light Rain